Location: Novo Ouro Preto
(19.8840°S, 43.9844°W)
Time: 09:32:06
(UTC+00:00)

Cosmos 773 Rocket - Pass Details

Date: 18 September 2020
Orbit: 745 x 777 km, 74.1° (Epoch: 22 October)

Event Time Altitude Azimuth Distance (km) Brightness Sun altitude
Rises 21:38:28 0° 343° (NNW) 3,221 7.4 -11.9°
Reaches altitude 10° 21:40:49 10° 342° (NNW) 2,305 6.7 -12.5°
Maximum altitude 21:46:04 76° 256° (WSW) 803 4.2 -13.7°
Drops below altitude 10° 21:51:23 10° 170° (S) 2,341 6.5 -15.0°
Sets 21:53:48 0° 168° (SSE) 3,275 7.2 -15.5°
